This is the latest recevied weather packets stored in our database for station/object AA4OM-2. If no packets are shown the sender has not sent any weather packets the latest 10 day(s).
| Time | Temp. | Humidity | Pressure | Rain* | Wind** | Luminosity | Snow |
|---|---|---|---|---|---|---|---|
| 1777770015 | 10.56° C | 70% | 1019.8 hPa | 0 mm | - | 0 W/m² | - |
| 1777769712 | 11.11° C | 69% | 1019.5 hPa | 0 mm | - | 0 W/m² | - |
| 1777769409 | 11.67° C | 66% | 1019.6 hPa | 0 mm | - | 1 W/m² | - |
| 1777769105 | 11.67° C | 65% | 1019.6 hPa | 0 mm | - | 2 W/m² | - |
| 1777768803 | 12.22° C | 64% | 1019.5 hPa | 0 mm | - | 4 W/m² | - |
| 1777768499 | 12.22° C | 63% | 1019.7 hPa | 0 mm | - | 6 W/m² | - |
| 1777768197 | 12.22° C | 62% | 1019.4 hPa | 0 mm | - | 9 W/m² | - |
| 1777767894 | 12.78° C | 62% | 1019.4 hPa | 0 mm | - | 13 W/m² | - |
| 1777767589 | 12.78° C | 61% | 1019.3 hPa | 0 mm | - | 16 W/m² | - |
| 1777767286 | 12.78° C | 61% | 1019.2 hPa | 0 mm | - | 20 W/m² | - |
| 1777766984 | 12.78° C | 60% | 1019.1 hPa | 0 mm | - | 24 W/m² | - |
| 1777766681 | 13.33° C | 59% | 1019.1 hPa | 0 mm | - | 28 W/m² | - |
| 1777766378 | 13.33° C | 58% | 1019 hPa | 0 mm | - | 32 W/m² | - |
| 1777766075 | 13.33° C | 58% | 1019.1 hPa | 0 mm | - | 35 W/m² | - |
| 1777765772 | 13.89° C | 57% | 1019.1 hPa | 0 mm | - | 39 W/m² | - |
| 1777765469 | 13.89° C | 56% | 1018.8 hPa | 0 mm | - | 42 W/m² | - |
| 1777765166 | 14.44° C | 56% | 1018.7 hPa | 0 mm | - | 62 W/m² | - |
| 1777764861 | 14.44° C | 55% | 1018.9 hPa | 0 mm | - | 73 W/m² | - |
| 1777764559 | 14.44° C | 54% | 1018.7 hPa | 0 mm | - | 81 W/m² | - |
| 1777764255 | 14.44° C | 54% | 1018.7 hPa | 0 mm | - | 92 W/m² | - |
| 1777763952 | 15° C | 53% | 1018.9 hPa | 0 mm | - | 102 W/m² | - |
| 1777763649 | 15° C | 53% | 1018.6 hPa | 0 mm | - | 115 W/m² | - |
| 1777763347 | 15.56° C | 51% | 1018.6 hPa | 0 mm | - | 131 W/m² | - |
| 1777763045 | 15° C | 50% | 1018.5 hPa | 0 mm | - | 143 W/m² | - |
| 1777762742 | 15° C | 51% | 1018.7 hPa | 0 mm | - | 155 W/m² | - |
* Rain latest hour (hover to see other rain measurements)
** Current wind speed in m/s (hover to see current wind gust speed)